[Date Prev][Date Next][Thread Prev][Thread Next] - [Date Index][Thread Index][Author Index]
2 Line Pcsat 2-2
- Subject: [sarex] 2 Line Pcsat 2-2
- From: "Dave Larsen PhD" <doc@xxxxxxxxxxx>
- Date: Wed, 2 Feb 2005 04:13:43 -0800
PCSAT
1 26931U 01043C 05032.08423060 .00000210 00000-0 11454-3 0 9601
2 26931 67.0530 218.3213 0007324 262.3558 97.6718 14.29360200174312
----
Via the sarex mailing list at AMSAT.ORG courtesy of AMSAT-NA.
To unsubscribe, send "unsubscribe sarex" to Majordomo@amsat.org
AMSAT Home